Meteo pe oră la Dachne

Astăzi, 15 Aprilie, Joi

Timp Temperatura Precipitaţii Vânt Presiune Umiditate
00:00 +7°C° 0 mm 2 m/s 750 mmHg 87%
01:00 +7°C° 0 mm 2 m/s 750 mmHg 86%
02:00 +6°C° 0 mm 2 m/s 750 mmHg 86%
03:00 +7°C° 0.1 mm 3 m/s 750 mmHg 86%
04:00 +7°C° 0.1 mm 3 m/s 750 mmHg 86%
05:00 +7°C° 0.1 mm 3 m/s 750 mmHg 86%
06:00 +9°C° 0 mm 3 m/s 750 mmHg 81%
07:00 +10°C° 0 mm 4 m/s 750 mmHg 76%
08:00 +10°C° 0 mm 5 m/s 750 mmHg 72%
09:00 +12°C° 0.1 mm 5 m/s 750 mmHg 67%
10:00 +13°C° 0.1 mm 5 m/s 750 mmHg 63%
11:00 +15°C° 0.1 mm 5 m/s 749 mmHg 58%
12:00 +14°C° 0.2 mm 6 m/s 749 mmHg 60%
13:00 +14°C° 0.2 mm 7 m/s 749 mmHg 62%
14:00 +14°C° 0.2 mm 7 m/s 749 mmHg 64%
15:00 +14°C° 0.4 mm 7 m/s 749 mmHg 64%
16:00 +13°C° 0.4 mm 6 m/s 749 mmHg 64%
17:00 +13°C° 0.4 mm 6 m/s 749 mmHg 64%
18:00 +12°C° 0 mm 5 m/s 749 mmHg 70%
19:00 +10°C° 0 mm 4 m/s 749 mmHg 76%
20:00 +9°C° 0 mm 3 m/s 750 mmHg 82%
21:00 +8°C° 0 mm 3 m/s 750 mmHg 85%
22:00 +8°C° 0 mm 3 m/s 750 mmHg 88%
23:00 +7°C° 0 mm 3 m/s 750 mmHg 92%

Mâine, 16 Aprilie, Vineri

Timp Temperatura Precipitaţii Vânt Presiune Umiditate
00:00 +7°C° 0 mm 3 m/s 750 mmHg 92%
01:00 +5°C° 0 mm 3 m/s 750 mmHg 93%
02:00 +6°C° 0 mm 2 m/s 750 mmHg 94%
03:00 +5°C° 0 mm 2 m/s 750 mmHg 93%
04:00 +4°C° 0 mm 3 m/s 750 mmHg 93%
05:00 +4°C° 0 mm 3 m/s 750 mmHg 93%
06:00 +5°C° 0 mm 3 m/s 751 mmHg 86%
07:00 +7°C° 0 mm 3 m/s 751 mmHg 80%
08:00 +8°C° 0 mm 4 m/s 751 mmHg 74%
09:00 +8°C° 0 mm 4 m/s 751 mmHg 72%
10:00 +10°C° 0 mm 4 m/s 751 mmHg 69%
11:00 +9°C° 0 mm 5 m/s 751 mmHg 67%
12:00 +10°C° 0.1 mm 5 m/s 751 mmHg 64%
13:00 +12°C° 0.1 mm 5 m/s 751 mmHg 60%
14:00 +12°C° 0.1 mm 5 m/s 751 mmHg 56%
15:00 +12°C° 0.2 mm 5 m/s 751 mmHg 58%
16:00 +12°C° 0.2 mm 5 m/s 751 mmHg 59%
17:00 +10°C° 0.2 mm 5 m/s 751 mmHg 61%
18:00 +10°C° 0.1 mm 4 m/s 752 mmHg 66%
19:00 +8°C° 0.1 mm 4 m/s 752 mmHg 72%
20:00 +8°C° 0.1 mm 3 m/s 752 mmHg 77%
21:00 +7°C° 0.1 mm 3 m/s 752 mmHg 80%
22:00 +5°C° 0.1 mm 3 m/s 752 mmHg 83%
23:00 +5°C° 0.1 mm 3 m/s 752 mmHg 86%

Poimâine, 17 Aprilie, Sâmbătă

Timp Temperatura Precipitaţii Vânt Presiune Umiditate
00:00 +5°C° 0.2 mm 2 m/s 752 mmHg 88%
01:00 +5°C° 0.2 mm 2 m/s 753 mmHg 91%
02:00 +4°C° 0.2 mm 2 m/s 753 mmHg 93%
03:00 +4°C° 0 mm 2 m/s 753 mmHg 93%
04:00 +3°C° 0 mm 2 m/s 753 mmHg 94%
05:00 +3°C° 0 mm 2 m/s 753 mmHg 94%
06:00 +4°C° 0 mm 2 m/s 754 mmHg 86%
07:00 +5°C° 0 mm 3 m/s 754 mmHg 79%
08:00 +7°C° 0 mm 3 m/s 754 mmHg 71%
09:00 +8°C° 0 mm 3 m/s 754 mmHg 67%
10:00 +8°C° 0 mm 3 m/s 754 mmHg 64%
11:00 +9°C° 0 mm 3 m/s 755 mmHg 60%
12:00 +9°C° 0 mm 3 m/s 755 mmHg 59%
13:00 +10°C° 0 mm 3 m/s 755 mmHg 59%
14:00 +10°C° 0 mm 3 m/s 755 mmHg 59%
15:00 +10°C° 0 mm 3 m/s 755 mmHg 59%
16:00 +9°C° 0 mm 3 m/s 755 mmHg 60%
17:00 +9°C° 0 mm 3 m/s 754 mmHg 61%
18:00 +9°C° 0 mm 2 m/s 755 mmHg 65%
19:00 +8°C° 0 mm 2 m/s 755 mmHg 70%
20:00 +7°C° 0 mm 2 m/s 755 mmHg 74%
21:00 +7°C° 0 mm 2 m/s 755 mmHg 75%
22:00 +7°C° 0 mm 2 m/s 755 mmHg 77%
23:00 +6°C° 0 mm 2 m/s 755 mmHg 78%

18 Aprilie, Duminică

Timp Temperatura Precipitaţii Vânt Presiune Umiditate
00:00 +6°C° 0 mm 2 m/s 755 mmHg 80%
01:00 +6°C° 0 mm 2 m/s 754 mmHg 82%
02:00 +5°C° 0 mm 2 m/s 754 mmHg 84%
03:00 +5°C° 0 mm 2 m/s 754 mmHg 85%
04:00 +5°C° 0 mm 2 m/s 754 mmHg 86%
05:00 +5°C° 0 mm 2 m/s 754 mmHg 87%
06:00 +6°C° 0 mm 2 m/s 754 mmHg 80%
07:00 +8°C° 0 mm 2 m/s 754 mmHg 73%
08:00 +10°C° 0 mm 2 m/s 754 mmHg 66%
09:00 +12°C° 0 mm 2 m/s 754 mmHg 60%
10:00 +13°C° 0 mm 2 m/s 754 mmHg 55%
11:00 +14°C° 0 mm 2 m/s 754 mmHg 49%
12:00 +15°C° 0 mm 2 m/s 754 mmHg 47%
13:00 +16°C° 0 mm 2 m/s 754 mmHg 45%
14:00 +16°C° 0 mm 2 m/s 753 mmHg 43%
15:00 +16°C° 0 mm 2 m/s 753 mmHg 47%
16:00 +16°C° 0 mm 3 m/s 753 mmHg 51%
17:00 +16°C° 0 mm 3 m/s 753 mmHg 55%
18:00 +14°C° 0 mm 3 m/s 754 mmHg 60%
19:00 +13°C° 0 mm 3 m/s 754 mmHg 64%
20:00 +12°C° 0 mm 3 m/s 754 mmHg 69%
21:00 +11°C° 0 mm 3 m/s 754 mmHg 71%
22:00 +11°C° 0 mm 3 m/s 754 mmHg 72%
23:00 +11°C° 0 mm 3 m/s 754 mmHg 74%

19 Aprilie, Luni

Timp Temperatura Precipitaţii Vânt Presiune Umiditate
00:00 +10°C° 0 mm 3 m/s 754 mmHg 78%
01:00 +9°C° 0 mm 3 m/s 754 mmHg 82%
02:00 +8°C° 0 mm 3 m/s 754 mmHg 86%
03:00 +8°C° 0 mm 3 m/s 754 mmHg 87%
04:00 +7°C° 0 mm 4 m/s 754 mmHg 87%
05:00 +7°C° 0 mm 4 m/s 754 mmHg 88%
06:00 +9°C° 0 mm 5 m/s 754 mmHg 81%
07:00 +10°C° 0 mm 6 m/s 754 mmHg 73%
08:00 +12°C° 0 mm 7 m/s 754 mmHg 66%
09:00 +13°C° 0 mm 8 m/s 754 mmHg 60%
10:00 +15°C° 0 mm 8 m/s 753 mmHg 55%
11:00 +16°C° 0 mm 8 m/s 753 mmHg 49%
12:00 +16°C° 0 mm 8 m/s 753 mmHg 50%
13:00 +17°C° 0 mm 8 m/s 752 mmHg 51%
14:00 +17°C° 0 mm 8 m/s 752 mmHg 51%
15:00 +16°C° 0 mm 9 m/s 751 mmHg 54%
16:00 +16°C° 0 mm 9 m/s 751 mmHg 56%
17:00 +15°C° 0 mm 9 m/s 751 mmHg 58%
18:00 +15°C° 0 mm 9 m/s 750 mmHg 59%
19:00 +13°C° 0 mm 10 m/s 750 mmHg 59%
20:00 +13°C° 0 mm 10 m/s 750 mmHg 60%
21:00 +13°C° 0 mm 10 m/s 749 mmHg 61%
22:00 +12°C° 0 mm 10 m/s 748 mmHg 63%
23:00 +12°C° 0 mm 11 m/s 748 mmHg 64%

20 Aprilie, Marţi

Timp Temperatura Precipitaţii Vânt Presiune Umiditate
00:00 +11°C° 0 mm 11 m/s 747 mmHg 64%
01:00 +11°C° 0 mm 11 m/s 747 mmHg 63%
02:00 +9°C° 0 mm 12 m/s 746 mmHg 62%
03:00 +8°C° 0.5 mm 12 m/s 745 mmHg 66%
04:00 +8°C° 0.5 mm 12 m/s 744 mmHg 71%
05:00 +7°C° 0.5 mm 13 m/s 743 mmHg 75%
06:00 +7°C° 0.5 mm 13 m/s 743 mmHg 75%
07:00 +7°C° 0.5 mm 13 m/s 743 mmHg 75%
08:00 +7°C° 0.5 mm 13 m/s 743 mmHg 75%
09:00 +7°C° 0.6 mm 13 m/s 743 mmHg 77%
10:00 +8°C° 0.6 mm 12 m/s 743 mmHg 79%
11:00 +8°C° 0.6 mm 12 m/s 744 mmHg 81%
12:00 +11°C° 0 mm 11 m/s 744 mmHg 79%
13:00 +12°C° 0 mm 10 m/s 744 mmHg 76%
14:00 +15°C° 0 mm 9 m/s 744 mmHg 73%
15:00 +15°C° 0.3 mm 8 m/s 744 mmHg 73%
16:00 +15°C° 0.3 mm 8 m/s 745 mmHg 73%
17:00 +15°C° 0.3 mm 7 m/s 745 mmHg 73%
18:00 +13°C° 0 mm 6 m/s 746 mmHg 76%
19:00 +12°C° 0 mm 5 m/s 746 mmHg 78%
20:00 +11°C° 0 mm 4 m/s 747 mmHg 81%
21:00 +10°C° 0 mm 4 m/s 747 mmHg 83%
22:00 +8°C° 0 mm 4 m/s 748 mmHg 85%
23:00 +8°C° 0 mm 4 m/s 748 mmHg 87%
Arată mai mult

Formular de consimțământ

Meteoprog și furnizorii noștri de servicii pot stoca și accesa date personale, precum cookies, identificatori de dispozitiv sau alte tehnologii similare pe dispozitivul dumneavoastră și procesa astfel de date pentru a personaliza conținutul și reclamele, dar și pentru a oferi caracteristici de social media și pentru a analiza traficul.

  • Stocarea și/sau accesarea informațiilor pe dispozitivul dumneavoastră

    Cookies, identificatori de dispozitiv sau alte informații pot fi stocate sau accesate pe dispozitiv în scopurile indicate mai sus.

  • Reclame și conținut personalizat, evaluarea reclamelor și a conținutului, informații despre audiențe și dezvoltarea produselor

    Reclamele și conținutul pot fi personalizate pe baza unui profil. Pot fi adăugate date suplimentare pentru a personaliza mai bine reclamele și conținutul. Performanța reclamelor și conținutului poate fi măsurată. Pot fi obținute informații despre utilizatorii care au văzut reclamele și conținutul. Aceste date pot fi utilizate pentru a dezvolta sau îmbunătăți experiența utilizatorilor, sistemele și software-ul.

Dând clic pe ‘Sunt de acord’, permiteți utilizarea cookie-urilor menționate, a identificatorilor de dispozitiv, balizelor web sau altor tehnologii similare. Setările pot fi modificate din browser-ul dispozitivului dumneavoastră.

În anumite scopuri, interesele legitime pot prima asupra consimțământului. Puteți citi mai multe informații în acest sens în Politica privind Confidențialitatea Datelor și Cookie.